[[{"header":{"parameterUnit":"m.s-1","parameterCategory":2,"la1":30.2991,"la2":30.254,"lo1":-89.0895,"lo2":-89.0444,"dy":0.0017,"dx":0.0017,"nx":28,"ny":28,"refTime":"2025-12-05T03:00:00:Z","depth":"0","parameterNumber":2,"parameterNumberName":"U-component_of_CURRENTS"},"data":[0,0,0,0,0,0,0,0,0,0,0,0,0,0,0,0,0,0,0,0,0,0,0,0,0,0,0,0,0,0,0,0,0,0,0,0,0,0,0,0,0,0,0,0,0,0,0,0,0,0,0,0,0,0,0,0,0,0,0.3862,0.3863,0,0.3891,0.3891,0.3891,0.3873,0.3872,0.3872,0.3871,0.3854,0.3854,0.3854,0,0,0,0,0,0,0,0,0,0,0,0,0,0.3803,0.3804,0.3862,0.3863,0.3864,0.3891,0.3891,0.3891,0.3873,0.3872,0.3872,0.3871,0.3854,0.3854,0.3854,0,0,0,0,0,0,0,0,0,0,0,0,0,0.3827,0.3804,0.3862,0.386,0.3861,0.3891,0.3891,0.3891,0.3873,0.3872,0.3871,0.3871,0.3854,0.3854,0.3854,0.3871,0,0,0.3854,0.3854,0,0,0,0,0,0,0,0,0.3825,0.3829,0.386,0.3861,0.3861,0.388,0.3864,0.3883,0.3873,0.3865,0.3871,0.387,0.3861,0.3861,0.3864,0.387,0.3869,0.3854,0.3854,0.3854,0.3854,0,0,0,0,0,0,0,0.3824,0.3827,0.387,0.3861,0.3862,0.3862,0.3864,0.3867,0.3864,0.3866,0.3865,0.3874,0.3861,0.3864,0.3863,0.3869,0.3854,0.3854,0.3854,0.3854,0.3932,0.3934,0,0,0,0,0,0,0.3828,0.3826,0.3869,0.3871,0.3845,0.3864,0.3866,0.3872,0.3865,0.3864,0.3875,0.3873,0.3864,0.3863,0.3862,0.3914,0.3854,0.3854,0.3854,0.393,0.3933,0.3935,0,0,0,0,0,0,0.3826,0.3831,0.3868,0.3852,0.3857,0.3866,0.3873,0.3873,0.3883,0.3873,0.387,0.3885,0.3863,0.3862,0.3881,0.3912,0.3854,0.3854,0.3928,0.3931,0.3934,0.3996,0,0,0,0,0,0,0.3824,0.383,0.3835,0.3852,0.3858,0.3897,0.3874,0.3875,0.389,0.3889,0.3881,0.3878,0.3863,0.3881,0.3881,0.3911,0.3854,0.3925,0.3929,0.3933,0.3991,0.4,0.4008,0,0,0,0,0,0.3822,0.3834,0.3835,0.3841,0.3865,0.3898,0.3902,0.3902,0.3892,0.3905,0.3903,0.3878,0.3906,0.3883,0.3882,0.3912,0.3923,0.3928,0.3933,0.3987,0.3999,0.4008,0,0,0,0,0,0,0.3808,0.3834,0.3836,0.3854,0.388,0.3897,0.391,0.3912,0.3921,0.3918,0.39,0.3898,0.3932,0.3917,0.3892,0.3949,0.3913,0.3918,0.3955,0.3965,0.3974,0.3991,0.3855,0,0,0,0,0,0.381,0.3825,0.3853,0.3869,0.3884,0.3899,0.3912,0.3918,0.393,0.3933,0.3928,0.3931,0.3951,0.3952,0.3965,0.3987,0.4003,0.401,0.4019,0.4026,0.4042,0.4095,0.411,0.395,0.395,0.395,0,0,0.3807,0.3826,0.3833,0.3867,0.3885,0.3916,0.3904,0.3934,0.396,0.393,0.3958,0.3965,0.3968,0.4001,0.4014,0.3989,0.4082,0.4032,0.4038,0.405,0.4101,0.4117,0.4131,0.3953,0.3952,0.3952,0,0,0.3816,0.3831,0.3848,0.3878,0.3916,0.3933,0.3946,0.3973,0.3986,0.4017,0.4013,0.4042,0.405,0.407,0.4078,0.4144,0.4134,0.4144,0.4191,0.4242,0.4256,0.4268,0.4316,0.4332,0.4139,0.4139,0.4139,0,0.381,0.3836,0.386,0.3892,0.3919,0.3943,0.3975,0.4001,0.403,0.4052,0.4033,0.4093,0.4089,0.415,0.4172,0.4165,0.4189,0.4146,0.4253,0.4266,0.4277,0.4323,0.434,0.4142,0.4142,0.4142,0.4141,0,0.3834,0.386,0.3879,0.3925,0.396,0.3993,0.4039,0.4071,0.4087,0.4111,0.4175,0.4186,0.4218,0.4228,0.4216,0.43,0.4291,0.4264,0.4224,0.4297,0.4341,0.4357,0.4147,0.4146,0.4145,0.4144,0,0,0.38,0.3877,0.3882,0.3907,0.398,0.4005,0.4071,0.4131,0.4183,0.421,0.4276,0.4314,0.4323,0.4336,0.4338,0.4381,0.4478,0.4356,0.4357,0.44,0.4598,0.4576,0.4591,0.4466,0.4469,0.4472,0.46,0,0.3808,0.3859,0.3905,0.3959,0.3989,0.4049,0.411,0.4173,0.4232,0.4304,0.434,0.4405,0.4364,0.4396,0.4432,0.4479,0.4523,0.4447,0.4526,0.4529,0.4496,0.461,0.4492,0.4595,0.4616,0.4618,0.462,0,0.3808,0.3845,0.3892,0.3974,0.3996,0.4036,0.4142,0.4205,0.4324,0.438,0.4453,0.4489,0.4573,0.4524,0.463,0.4583,0.4598,0.4622,0.4627,0.4597,0.4537,0.4525,0.4624,0.4551,0.4645,0.4643,0.4641,0,0.3751,0.3832,0.3863,0.3891,0.3993,0.403,0.409,0.4214,0.4292,0.4441,0.4515,0.4607,0.4669,0.4711,0.4747,0.4701,0.4865,0.4801,0.4796,0.4794,0.4706,0.4692,0.4739,0.4878,0.4878,0.4878,0.4877,0,0.3729,0.3753,0.3834,0.385,0.3905,0.3993,0.4081,0.4176,0.4329,0.4424,0.4539,0.4637,0.472,0.4807,0.4812,0.4873,0.4913,0.4844,0.4841,0.4725,0.4711,0.4651,0.4604,0.4882,0.4881,0.488,0.488,0,0.3658,0.371,0.3749,0.3844,0.3875,0.3913,0.4059,0.4129,0.4297,0.4433,0.4487,0.469,0.482,0.4894,0.4999,0.4964,0.4906,0.5018,0.4882,0.486,0.4759,0.4719,0.4589,0.4434,0.5043,0.5043,0.5044,0,0.3622,0.3634,0.372,0.3738,0.3776,0.3852,0.3906,0.4086,0.4178,0.4445,0.4501,0.4709,0.4833,0.5015,0.5037,0.5095,0.4925,0.4983,0.4869,0.4779,0.4733,0.4526,0.4387,0.4782,0.478,0.4779,0.4777,0,0.3556,0.3585,0.3614,0.3658,0.3699,0.3754,0.3852,0.3924,0.4134,0.4278,0.4474,0.4615,0.4849,0.49,0.5011,0.5013,0.4781,0.4953,0.4897,0.4583,0.4324,0.4163,0.4673,0.4764,0.4766,0.4767,0.4767,0.4768,0.3496,0.3496,0.3533,0.356,0.3599,0.3624,0.3632,0.3766,0.3897,0.4078,0.4312,0.4479,0.472,0.4892,0.4862,0.48,0.4702,0.4674,0.4652,0.4464,0.4249,0.474,0.4797,0.4799,0.48,0.4801,0.4802,0,0.3405,0.3411,0.3434,0.3444,0.3424,0.3496,0.3562,0.3556,0.3636,0.3886,0.4056,0.4319,0.4456,0.4602,0.4694,0.4547,0.4289,0.442,0.4112,0.3999,0.4501,0.4426,0.4361,0.4361,0.4361,0.4361,0.4361,0.4361,0.3356,0.3325,0.3332,0.3258,0.3261,0.3187,0.3187,0.3223,0.3357,0.352,0.3686,0.3899,0.4332,0.4609,0.4558,0.4424,0.4047,0.3884,0.3808,0.422,0.424,0.426,0.418,0.4064,0.4063,0.314,0.3134,0.3129]},{"header":{"parameterUnit":"m.s-1","parameterCategory":2,"la1":30.2991,"la2":30.254,"lo1":-89.0895,"lo2":-89.0444,"dy":0.0017,"dx":0.0017,"nx":28,"ny":28,"refTime":"2025-12-05T03:00:00:Z","depth":"0","parameterNumber":3,"parameterNumberName":"V-component_of_CURRENTS"},"data":[0,0,0,0,0,0,0,0,0,0,0,0,0,0,0,0,0,0,0,0,0,0,0,0,0,0,0,0,0,0,0,0,0,0,0,0,0,0,0,0,0,0,0,0,0,0,0,0,0,0,0,0,0,0,0,0,0,0,0.0071,0.0071,0,-0.0012,-0.0013,-0.0014,-0.0074,-0.0074,-0.0075,-0.0075,-0.0182,-0.0184,-0.0187,0,0,0,0,0,0,0,0,0,0,0,0,0,0.0102,0.0102,0.0072,0.0071,0.007,-0.0012,-0.0013,-0.0015,-0.0074,-0.0074,-0.0075,-0.0075,-0.0181,-0.0184,-0.0187,0,0,0,0,0,0,0,0,0,0,0,0,0,0.0058,0.0102,0.0072,0.0032,0.0028,-0.0012,-0.0013,-0.0015,-0.0074,-0.0074,-0.0075,-0.0075,-0.018,-0.0184,-0.0188,-0.0205,0,0,-0.02,-0.0202,0,0,0,0,0,0,0,0,0.0061,0.0057,0.0039,0.0035,0.003,-0.0031,-0.0042,-0.0079,-0.0074,-0.0038,-0.0075,-0.0075,-0.0132,-0.0139,-0.0158,-0.021,-0.0215,-0.02,-0.0203,-0.0204,-0.0205,0,0,0,0,0,0,0,0.0064,0.006,0.0036,0.0038,0.0033,-0.0008,-0.0014,-0.005,-0.0084,-0.0041,-0.0045,-0.005,-0.0134,-0.0154,-0.0161,-0.0216,-0.02,-0.0204,-0.0206,-0.0208,-0.0283,-0.0282,0,0,0,0,0,0,0.0084,0.0063,0.0038,0.0033,0.0048,-0.0007,-0.0014,-0.0013,-0.0083,-0.0094,-0.005,-0.0052,-0.0147,-0.0156,-0.0165,-0.0167,-0.0204,-0.0208,-0.021,-0.0283,-0.0283,-0.0282,0,0,0,0,0,0,0.0085,0.0083,0.0042,0.0048,0.004,-0.0007,-0.0005,-0.0014,-0.0028,-0.0089,-0.01,-0.0053,-0.0148,-0.0159,-0.0186,-0.0172,-0.021,-0.0213,-0.0284,-0.0283,-0.0283,-0.0185,0,0,0,0,0,0,0.0087,0.0084,0.009,0.005,0.0041,0.0033,-0.0005,-0.0016,-0.003,-0.0034,-0.0096,-0.0107,-0.0149,-0.018,-0.019,-0.0178,-0.0216,-0.0284,-0.0283,-0.0283,-0.0188,-0.0181,-0.0174,0,0,0,0,0,0.0088,0.0108,0.0091,0.0088,0.0052,0.0034,0.0026,-0.0011,-0.0029,-0.0027,-0.007,-0.0104,-0.0183,-0.0183,-0.0195,-0.0183,-0.0284,-0.0284,-0.0283,-0.0192,-0.0182,-0.0175,0,0,0,0,0,0,0.0124,0.0103,0.0084,0.0095,0.0071,0.0026,0.0025,-0.0002,-0.0035,-0.0038,-0.0099,-0.0112,-0.0132,-0.0172,-0.0169,-0.0205,-0.024,-0.0242,-0.0167,-0.0159,-0.0152,-0.0123,-0.022,0,0,0,0,0,0.0136,0.0144,0.0112,0.012,0.0114,0.007,0.0057,0.0035,0.0001,-0.0014,-0.0058,-0.0103,-0.014,-0.0158,-0.0198,-0.0214,-0.0256,-0.0216,-0.0209,-0.0203,-0.0188,-0.0243,-0.0239,-0.028,-0.028,-0.028,0,0,0.0151,0.0141,0.0143,0.0128,0.0105,0.0113,0.0061,0.0055,0.0059,-0.002,-0.0029,-0.008,-0.0139,-0.0158,-0.0171,-0.0187,-0.0214,-0.0202,-0.0196,-0.0184,-0.0242,-0.0238,-0.0234,-0.0279,-0.0279,-0.0279,0,0,0.0195,0.0178,0.0202,0.0191,0.0171,0.0148,0.0153,0.0115,0.0095,0.0077,0.0023,-0.0014,-0.0072,-0.0108,-0.0135,-0.0114,-0.0176,-0.013,-0.007,-0.0123,-0.012,-0.0118,-0.0164,-0.0167,-0.0125,-0.0125,-0.0125,0,0.0214,0.0241,0.0206,0.0227,0.0231,0.0174,0.0205,0.0176,0.0133,0.0126,0.0089,0.0006,-0.0046,-0.0067,-0.0063,-0.0096,-0.0136,-0.0094,-0.0112,-0.0111,-0.011,-0.0159,-0.0163,-0.012,-0.0121,-0.0122,-0.0122,0,0.0276,0.0296,0.0311,0.0322,0.032,0.0335,0.0302,0.029,0.0255,0.0225,0.019,0.0108,0.0063,0.0033,-0.0009,-0.0026,-0.006,-0.0097,-0.0128,-0.01,-0.0154,-0.016,-0.0114,-0.0115,-0.0117,-0.0118,0,0,0.0327,0.0353,0.0358,0.0386,0.0376,0.0387,0.0392,0.0388,0.0404,0.0331,0.0336,0.0251,0.0201,0.0167,0.0099,0.0047,0.001,-0.0014,-0.0019,-0.0049,-0.0104,-0.0126,-0.0135,-0.0033,-0.0033,-0.0034,-0.0142,0,0.0389,0.0461,0.0452,0.0518,0.0555,0.0514,0.0527,0.0511,0.0482,0.0469,0.0369,0.0345,0.0253,0.0234,0.0167,0.0054,-0.0002,0.0043,-0.0136,-0.0141,-0.0155,-0.0142,-0.0113,-0.0207,-0.0149,-0.015,-0.0151,0,0.0459,0.0501,0.058,0.063,0.0641,0.0663,0.0688,0.0698,0.0657,0.0632,0.0579,0.0499,0.0417,0.0329,0.0149,0.0182,0.0054,-0.0047,-0.0055,-0.011,-0.0173,-0.0228,-0.0221,-0.0458,-0.0161,-0.016,-0.0159,0,0.0528,0.0595,0.0667,0.0682,0.0718,0.074,0.0758,0.0746,0.0785,0.0743,0.0757,0.0628,0.0578,0.0399,0.0187,0.0168,-0.0019,-0.0074,-0.0217,-0.022,-0.0247,-0.0252,-0.048,-0.0202,-0.0202,-0.0201,-0.0201,0,0.0605,0.0662,0.0705,0.0741,0.0832,0.0823,0.0911,0.0903,0.0921,0.0986,0.0853,0.0866,0.0593,0.045,0.0236,0.0002,0.0015,-0.0197,-0.0246,-0.0213,-0.0213,-0.0463,-0.0622,-0.0205,-0.0204,-0.0204,-0.0203,0,0.0671,0.0693,0.0785,0.0841,0.0868,0.0935,0.1032,0.1096,0.1091,0.1169,0.1164,0.1048,0.0865,0.0584,0.0295,0.0086,-0.0297,-0.024,-0.0178,-0.0218,-0.0571,-0.0724,-0.1034,-0.1135,-0.0412,-0.0414,-0.0415,0,0.0712,0.0765,0.0869,0.0935,0.0965,0.1065,0.114,0.1179,0.1271,0.1293,0.1347,0.1192,0.1129,0.0696,0.0291,-0.0086,-0.0336,-0.0321,-0.0358,-0.0581,-0.0789,-0.0909,-0.0979,-0.0362,-0.0363,-0.0363,-0.0363,0,0.0793,0.0824,0.09,0.1043,0.1138,0.1267,0.1382,0.1483,0.1536,0.1605,0.1664,0.1613,0.12,0.0842,0.0307,0.0024,-0.0501,-0.0341,-0.0594,-0.0784,-0.0909,-0.1029,-0.0303,-0.0366,-0.0366,-0.0366,-0.0366,-0.0366,0.0852,0.0924,0.1026,0.1165,0.1284,0.1446,0.1576,0.1714,0.1875,0.2006,0.1929,0.1927,0.1368,0.0656,0.0226,-0.0521,-0.0554,-0.0731,-0.0902,-0.1003,-0.1098,-0.0372,-0.0477,-0.0477,-0.0478,-0.0478,-0.0478,0,0.0931,0.1013,0.1145,0.1309,0.1456,0.1507,0.1725,0.1873,0.2084,0.2215,0.2283,0.2031,0.1344,0.062,-0.0386,-0.0942,-0.116,-0.1271,-0.1441,-0.1486,-0.0851,-0.0842,-0.1002,-0.1002,-0.1002,-0.1002,-0.1002,-0.1001,0.0971,0.1106,0.1176,0.1422,0.1546,0.1764,0.19,0.212,0.2284,0.247,0.2505,0.2483,0.1931,0.006,-0.1195,-0.1502,-0.1899,-0.203,-0.2225,-0.18,-0.1762,-0.1726,-0.1753,-0.2103,-0.2104,-0.2749,-0.2756,-0.2761]}],[{"header":{"parameterUnit":"m.s-1","parameterCategory":2,"la1":30.2991,"la2":30.254,"lo1":-89.0895,"lo2":-89.0444,"dy":0.0017,"dx":0.0017,"nx":28,"ny":28,"refTime":"2025-12-05T03:00:00:Z","depth":"2","parameterNumber":2,"parameterNumberName":"U-component_of_CURRENTS"},"data":[0,0,0,0,0,0,0,0,0,0,0,0,0,0,0,0,0,0,0,0,0,0,0,0,0,0,0,0,0,0,0,0,0,0,0,0,0,0,0,0,0,0,0,0,0,0,0,0,0,0,0,0,0,0,0,0,0,0,0.3684,0.3684,0,0.3714,0.3714,0.3714,0.3705,0.3704,0.3704,0.3704,0.3697,0.3697,0.3697,0,0,0,0,0,0,0,0,0,0,0,0,0,0.3621,0.3622,0.3684,0.3684,0.3685,0.3714,0.3714,0.3714,0.3705,0.3704,0.3704,0.3703,0.3697,0.3697,0.3697,0,0,0,0,0,0,0,0,0,0,0,0,0,0.3646,0.3622,0.3683,0.3686,0.3687,0.3714,0.3714,0.3714,0.3705,0.3704,0.3704,0.3703,0.3697,0.3697,0.3697,0.3709,0,0,0.3698,0.3698,0,0,0,0,0,0,0,0,0.3645,0.3648,0.3685,0.3686,0.3687,0.3708,0.369,0.3712,0.3705,0.3695,0.3704,0.3703,0.3699,0.3699,0.3702,0.3708,0.3708,0.3698,0.3698,0.3698,0.3698,0,0,0,0,0,0,0,0.3643,0.3647,0.3692,0.3686,0.3687,0.3687,0.369,0.3694,0.3696,0.3695,0.3696,0.3704,0.3699,0.3702,0.3702,0.3708,0.3698,0.3698,0.3698,0.3698,0.3779,0.3781,0,0,0,0,0,0,0.3647,0.3645,0.3691,0.3694,0.3668,0.3689,0.3692,0.3699,0.3697,0.3698,0.3705,0.3704,0.3702,0.3702,0.3702,0.3759,0.3698,0.3698,0.3698,0.3777,0.378,0.3782,0,0,0,0,0,0,0.3645,0.365,0.369,0.3673,0.3678,0.3691,0.3699,0.37,0.3714,0.3705,0.3704,0.372,0.3701,0.3701,0.3724,0.3757,0.3698,0.3698,0.3775,0.3778,0.3781,0.3845,0,0,0,0,0,0,0.3643,0.3649,0.3657,0.3673,0.3679,0.372,0.37,0.3701,0.3721,0.3721,0.3718,0.3716,0.3701,0.3724,0.3724,0.3756,0.3698,0.3772,0.3776,0.378,0.384,0.385,0.3858,0,0,0,0,0,0.3641,0.3654,0.3658,0.3663,0.3689,0.3721,0.3725,0.3729,0.3723,0.3738,0.3739,0.3716,0.3749,0.3726,0.3726,0.3758,0.3771,0.3775,0.378,0.3836,0.3848,0.3858,0,0,0,0,0,0,0.363,0.3656,0.3659,0.3679,0.3705,0.3721,0.3737,0.3741,0.3753,0.3754,0.3737,0.3737,0.3774,0.376,0.3735,0.3796,0.3758,0.3763,0.3802,0.3812,0.3821,0.3837,0.3699,0,0,0,0,0,0.3633,0.365,0.3677,0.3695,0.3711,0.3727,0.3741,0.3749,0.3763,0.3768,0.3766,0.3772,0.3793,0.3796,0.3809,0.3834,0.3848,0.3859,0.3867,0.3875,0.389,0.394,0.3955,0.3797,0.3797,0.3797,0,0,0.3632,0.3651,0.3659,0.3694,0.3713,0.3743,0.3734,0.3766,0.3792,0.3765,0.3798,0.3806,0.381,0.3845,0.386,0.3835,0.393,0.3881,0.3887,0.3898,0.3947,0.3962,0.3976,0.38,0.38,0.3799,0,0,0.3642,0.3661,0.368,0.3709,0.3748,0.3764,0.3778,0.3807,0.3822,0.3856,0.3853,0.3885,0.3897,0.3915,0.3924,0.3991,0.3981,0.3993,0.4042,0.409,0.4103,0.4115,0.4161,0.4176,0.3989,0.399,0.399,0,0.364,0.3667,0.3691,0.3724,0.3751,0.3776,0.3808,0.3835,0.3866,0.3889,0.3875,0.3937,0.3935,0.3995,0.4019,0.4012,0.4035,0.3996,0.4102,0.4113,0.4124,0.4168,0.4184,0.3993,0.3993,0.3992,0.3992,0,0.3665,0.3693,0.3713,0.3759,0.3794,0.3828,0.3873,0.3907,0.3926,0.395,0.4017,0.403,0.4064,0.4075,0.4064,0.4148,0.414,0.4112,0.4071,0.4144,0.4186,0.4201,0.3998,0.3997,0.3996,0.3995,0,0,0.3637,0.3712,0.3718,0.3743,0.3816,0.384,0.3907,0.3966,0.4018,0.4049,0.4116,0.4156,0.4168,0.4181,0.4185,0.4227,0.4323,0.4204,0.4205,0.4245,0.4438,0.4407,0.442,0.4312,0.4315,0.4317,0.4439,0,0.3646,0.3698,0.3743,0.3797,0.3827,0.3887,0.3946,0.4008,0.4068,0.4141,0.4178,0.4245,0.4208,0.4243,0.4278,0.4323,0.4366,0.4293,0.4366,0.4369,0.4328,0.4438,0.4069,0.4144,0.4454,0.4457,0.4458,0,0.3649,0.3686,0.3734,0.3814,0.3836,0.3877,0.3982,0.4043,0.416,0.4217,0.4291,0.4328,0.4412,0.4367,0.447,0.4425,0.444,0.4463,0.4467,0.4427,0.4367,0.4121,0.4161,0.4484,0.4482,0.448,0.4478,0,0.3596,0.3676,0.3709,0.3737,0.3836,0.3875,0.3935,0.4056,0.4132,0.4279,0.4352,0.4443,0.4507,0.4548,0.4583,0.454,0.4694,0.4633,0.4619,0.4616,0.4312,0.4279,0.4707,0.4707,0.4707,0.4707,0.4706,0,0.3578,0.3603,0.3684,0.3701,0.3758,0.3843,0.3932,0.4025,0.4175,0.4266,0.438,0.4474,0.4558,0.464,0.4645,0.4697,0.4741,0.4665,0.466,0.4326,0.4294,0.4585,0.4569,0.4711,0.471,0.4709,0.4708,0,0.3512,0.3564,0.3604,0.3699,0.3731,0.3771,0.3916,0.3983,0.4148,0.428,0.4334,0.4527,0.465,0.4721,0.4821,0.4783,0.4832,0.4828,0.4442,0.439,0.4704,0.469,0.4839,0.4839,0.484,0.484,0.484,0,0.3479,0.3493,0.358,0.3599,0.3639,0.3717,0.3771,0.3946,0.4034,0.429,0.4343,0.4542,0.4649,0.4816,0.4801,0.4842,0.4877,0.4512,0.4367,0.4745,0.4725,0.4711,0.4697,0.3984,0.3977,0.3971,0.3967,0,0.3418,0.3449,0.3478,0.3524,0.3568,0.3621,0.3719,0.3787,0.3989,0.4123,0.4304,0.4429,0.4613,0.4517,0.4602,0.456,0.4481,0.4404,0.4898,0.4026,0.3953,0.3929,0.394,0.3916,0.3921,0.3925,0.3928,0.393,0.3362,0.3364,0.3402,0.3432,0.3473,0.3495,0.3502,0.3623,0.3741,0.3879,0.4104,0.4157,0.4241,0.4204,0.4101,0.4015,0.4319,0.4093,0.4103,0.4121,0.4019,0.3952,0.3896,0.3901,0.3905,0.3908,0.3911,0,0.3273,0.3283,0.3307,0.3319,0.3295,0.3374,0.3434,0.34,0.3458,0.3622,0.3746,0.3509,0.3502,0.3561,0.3376,0.3424,0.3314,0.3265,0.3058,0.3116,0.3165,0.3004,0.2617,0.2612,0.2608,0.2604,0,0,0.3226,0.3194,0.32,0.3126,0.3135,0.3055,0.3052,0.3036,0.3094,0.3077,0.3079,0.3351,0.3492,0.2994,0.2962,0.2746,0.2892,0.2645,0.3698,0.3513,0.3555,0.368,0.3506,0,0,0,0,0]},{"header":{"parameterUnit":"m.s-1","parameterCategory":2,"la1":30.2991,"la2":30.254,"lo1":-89.0895,"lo2":-89.0444,"dy":0.0017,"dx":0.0017,"nx":28,"ny":28,"refTime":"2025-12-05T03:00:00:Z","depth":"2","parameterNumber":3,"parameterNumberName":"V-component_of_CURRENTS"},"data":[0,0,0,0,0,0,0,0,0,0,0,0,0,0,0,0,0,0,0,0,0,0,0,0,0,0,0,0,0,0,0,0,0,0,0,0,0,0,0,0,0,0,0,0,0,0,0,0,0,0,0,0,0,0,0,0,0,0,0.0166,0.0165,0,0.0085,0.0084,0.0083,0.0024,0.0024,0.0024,0.0024,-0.0081,-0.0083,-0.0086,0,0,0,0,0,0,0,0,0,0,0,0,0,0.0196,0.0196,0.0166,0.0165,0.0165,0.0086,0.0084,0.0083,0.0024,0.0024,0.0024,0.0023,-0.008,-0.0083,-0.0086,0,0,0,0,0,0,0,0,0,0,0,0,0,0.0154,0.0196,0.0166,0.0128,0.0124,0.0086,0.0084,0.0083,0.0025,0.0024,0.0024,0.0023,-0.0079,-0.0083,-0.0086,-0.0101,0,0,-0.0098,-0.01,0,0,0,0,0,0,0,0,0.0157,0.0153,0.0134,0.013,0.0126,0.0067,0.0057,0.0021,0.0025,0.006,0.0024,0.0023,-0.0032,-0.0039,-0.0057,-0.0106,-0.011,-0.0098,-0.01,-0.0102,-0.0103,0,0,0,0,0,0,0,0.016,0.0156,0.0132,0.0133,0.0128,0.0089,0.0083,0.0049,0.0015,0.0057,0.0053,0.0048,-0.0035,-0.0053,-0.006,-0.0112,-0.0098,-0.0101,-0.0104,-0.0105,-0.0177,-0.0177,0,0,0,0,0,0,0.0179,0.0159,0.0134,0.013,0.0143,0.009,0.0083,0.0084,0.0016,0.0006,0.0048,0.0045,-0.0046,-0.0055,-0.0064,-0.0066,-0.0102,-0.0106,-0.0108,-0.0178,-0.0177,-0.0177,0,0,0,0,0,0,0.018,0.0178,0.0138,0.0144,0.0136,0.009,0.0092,0.0083,0.0068,0.001,-0.0001,0.0044,-0.0047,-0.0058,-0.0085,-0.0072,-0.0107,-0.0111,-0.0178,-0.0178,-0.0177,-0.0084,0,0,0,0,0,0,0.0181,0.0179,0.0185,0.0146,0.0137,0.0129,0.0092,0.0082,0.0067,0.0062,0.0003,-0.0008,-0.0048,-0.0079,-0.0088,-0.0077,-0.0114,-0.0179,-0.0178,-0.0177,-0.0087,-0.008,-0.0074,0,0,0,0,0,0.0183,0.0202,0.0185,0.0182,0.0147,0.013,0.0122,0.0085,0.0067,0.0069,0.0028,-0.0006,-0.0082,-0.0081,-0.0093,-0.0082,-0.0179,-0.0178,-0.0177,-0.009,-0.0082,-0.0074,0,0,0,0,0,0,0.0217,0.0196,0.0178,0.0188,0.0165,0.0121,0.012,0.0094,0.0062,0.0058,-0.0,-0.0013,-0.0033,-0.0071,-0.0069,-0.0103,-0.0136,-0.0138,-0.0066,-0.0059,-0.0052,-0.0025,-0.0117,0,0,0,0,0,0.0229,0.0236,0.0205,0.0212,0.0206,0.0163,0.0151,0.0128,0.0096,0.0081,0.0039,-0.0006,-0.004,-0.0058,-0.0096,-0.0111,-0.0153,-0.0114,-0.0107,-0.0101,-0.0087,-0.0142,-0.0138,-0.0174,-0.0174,-0.0174,0,0,0.0242,0.0232,0.0235,0.022,0.0197,0.0205,0.0154,0.0147,0.0151,0.0075,0.0066,0.0016,-0.004,-0.0058,-0.007,-0.0086,-0.0114,-0.01,-0.0094,-0.0084,-0.014,-0.0137,-0.0134,-0.0174,-0.0174,-0.0174,0,0,0.0284,0.0267,0.0291,0.0279,0.0259,0.0237,0.0241,0.0204,0.0185,0.0167,0.0115,0.0078,0.0023,-0.0011,-0.0036,-0.0016,-0.0077,-0.0032,0.0025,-0.0027,-0.0024,-0.0022,-0.007,-0.0073,-0.0028,-0.0027,-0.0027,0,0.0301,0.0328,0.0293,0.0313,0.0317,0.0261,0.0291,0.0263,0.0221,0.0214,0.0178,0.0098,0.0048,0.0029,0.0033,0.0001,-0.0039,0.0003,-0.0017,-0.0016,-0.0016,-0.0065,-0.007,-0.0023,-0.0023,-0.0024,-0.0024,0,0.0361,0.038,0.0393,0.0404,0.0402,0.0416,0.0384,0.0371,0.0337,0.0308,0.0274,0.0195,0.0152,0.0123,0.0083,0.0066,0.0033,-0.0002,-0.0032,-0.0006,-0.006,-0.0067,-0.0016,-0.0018,-0.0019,-0.002,0,0,0.0408,0.0433,0.0438,0.0465,0.0455,0.0465,0.0471,0.0466,0.0481,0.0409,0.0414,0.0333,0.0283,0.0251,0.0186,0.0135,0.0096,0.0076,0.0071,0.0039,-0.0018,-0.0043,-0.0053,0.0055,0.0055,0.0054,-0.0056,0,0.0467,0.0536,0.0527,0.0591,0.0627,0.0587,0.06,0.0584,0.0556,0.0542,0.0446,0.0422,0.0334,0.0315,0.0249,0.014,0.0084,0.013,-0.0047,-0.0052,-0.0069,-0.0059,-0.0022,-0.0117,-0.0063,-0.0064,-0.0065,0,0.0533,0.0573,0.065,0.0698,0.0709,0.073,0.0754,0.0764,0.0723,0.0699,0.0646,0.0568,0.0489,0.0404,0.0228,0.026,0.0135,0.0037,0.0029,-0.0027,-0.0088,-0.0137,-0.0132,-0.0077,-0.0076,-0.0075,-0.0074,0,0.0598,0.0663,0.0733,0.0747,0.0782,0.0804,0.0821,0.081,0.0847,0.0805,0.0817,0.0691,0.0641,0.0467,0.026,0.0244,0.0057,0.0006,-0.0136,-0.014,-0.0159,-0.0162,-0.012,-0.012,-0.012,-0.0119,-0.0119,0,0.0671,0.0726,0.0768,0.0803,0.0892,0.0883,0.0968,0.096,0.0977,0.1038,0.0908,0.0918,0.0654,0.0512,0.0305,0.0074,0.0088,-0.012,-0.0168,-0.0126,-0.0125,-0.0131,-0.0131,-0.0124,-0.0123,-0.0122,-0.0121,0,0.0733,0.0755,0.0844,0.0899,0.0926,0.099,0.1085,0.1147,0.114,0.1213,0.1207,0.1091,0.0908,0.0636,0.0353,0.0152,-0.0079,-0.0168,-0.0098,-0.0136,-0.0256,-0.025,-0.0338,-0.034,-0.0342,-0.0343,-0.0344,0,0.0772,0.0824,0.0925,0.0989,0.1018,0.1116,0.1189,0.1227,0.1315,0.133,0.138,0.1224,0.1153,0.0728,0.0338,-0.003,-0.0082,-0.0247,-0.0277,-0.0239,-0.0278,-0.0269,-0.0261,-0.0271,-0.0271,-0.0271,-0.0271,0,0.085,0.088,0.0954,0.1093,0.1185,0.1311,0.1423,0.1518,0.1568,0.1627,0.1674,0.1615,0.121,0.0846,0.0326,0.0073,-0.0188,-0.0265,-0.0245,-0.0214,-0.0183,-0.0218,-0.0211,-0.0274,-0.0274,-0.0274,-0.0273,-0.0273,0.0906,0.0976,0.1075,0.121,0.1326,0.1482,0.1607,0.1733,0.1882,0.1975,0.1902,0.182,0.1388,0.0738,0.0282,-0.0211,-0.0188,-0.0358,-0.0355,-0.0351,-0.0316,-0.0288,-0.0393,-0.0394,-0.0394,-0.0394,-0.0395,0,0.0981,0.106,0.1188,0.1347,0.1489,0.1542,0.175,0.1875,0.2061,0.2119,0.2155,0.1748,0.133,0.0822,0.0101,-0.0318,-0.0353,-0.0458,-0.0402,-0.0396,-0.0391,-0.0357,-0.0447,-0.0448,-0.045,-0.0451,0,0,0.1019,0.1149,0.1217,0.1454,0.1575,0.1782,0.1912,0.2086,0.2183,0.2253,0.22,0.2095,0.1481,0.0957,0.038,-0.0037,-0.0124,-0.0125,-0.0036,0.0105,0.0115,-0.0286,-0.022,0,0,0,0,0]}],[{"header":{"parameterUnit":"m.s-1","parameterCategory":2,"la1":30.2991,"la2":30.254,"lo1":-89.0895,"lo2":-89.0444,"dy":0.0017,"dx":0.0017,"nx":28,"ny":28,"refTime":"2025-12-05T03:00:00:Z","depth":"4","parameterNumber":2,"parameterNumberName":"U-component_of_CURRENTS"},"data":[0,0,0,0,0,0,0,0,0,0,0,0,0,0,0,0,0,0,0,0,0,0,0,0,0,0,0,0,0,0,0,0,0,0,0,0,0,0,0,0,0,0,0,0,0,0,0,0,0,0,0,0,0,0,0,0,0,0,0.2438,0.2439,0,0.2528,0.2528,0.2529,0.2604,0.2605,0.2606,0.2607,0.2712,0.2714,0.2715,0,0,0,0,0,0,0,0,0,0,0,0,0,0.2317,0.2319,0.2438,0.2439,0.244,0.2527,0.2528,0.2529,0.2604,0.2605,0.2607,0.2608,0.2711,0.2713,0.2715,0,0,0,0,0,0,0,0,0,0,0,0,0,0.2382,0.2319,0.2437,0.249,0.2496,0.2527,0.2528,0.253,0.2604,0.2606,0.2607,0.2609,0.271,0.2713,0.2716,0.2701,0,0,0.2724,0.2725,0,0,0,0,0,0,0,0,0.2378,0.2386,0.2481,0.2486,0.2493,0.2559,0.2524,0.2589,0.2604,0.256,0.2607,0.2609,0.2662,0.2669,0.2679,0.2706,0.2711,0.2724,0.2726,0.2727,0.2728,0,0,0,0,0,0,0,0.2373,0.2382,0.2471,0.2482,0.249,0.2505,0.2515,0.2537,0.26,0.2564,0.257,0.2584,0.2666,0.2676,0.2682,0.2712,0.2724,0.2727,0.2728,0.2729,0.2894,0.2897,0,0,0,0,0,0,0.2367,0.2378,0.2468,0.2474,0.2441,0.2506,0.2518,0.2534,0.2599,0.2612,0.2582,0.2587,0.2671,0.2679,0.2686,0.2816,0.2727,0.273,0.2731,0.2891,0.2895,0.2898,0,0,0,0,0,0,0.2364,0.2374,0.2464,0.243,0.2443,0.2506,0.2524,0.2535,0.26,0.2614,0.2626,0.2643,0.2672,0.2682,0.2758,0.2815,0.2731,0.2733,0.2888,0.2892,0.2896,0.2984,0,0,0,0,0,0,0.236,0.2372,0.2406,0.2429,0.2445,0.2519,0.2523,0.2536,0.2604,0.2612,0.2668,0.2677,0.2674,0.2754,0.276,0.2817,0.2735,0.2885,0.289,0.2895,0.2977,0.299,0.3001,0,0,0,0,0,0.2355,0.2386,0.2407,0.242,0.2481,0.2521,0.2531,0.2578,0.2606,0.2642,0.2687,0.2678,0.2791,0.2758,0.2765,0.2824,0.2882,0.2888,0.2894,0.2972,0.2988,0.3001,0,0,0,0,0,0,0.2354,0.2398,0.2421,0.2467,0.2509,0.2535,0.2581,0.2608,0.2671,0.2698,0.2708,0.272,0.2809,0.2805,0.2768,0.2888,0.2837,0.2845,0.2894,0.2909,0.292,0.2924,0.2738,0,0,0,0,0,0.2367,0.2409,0.2445,0.249,0.2516,0.2559,0.2592,0.2625,0.267,0.2702,0.2741,0.2786,0.2829,0.2862,0.2895,0.2956,0.2957,0.3001,0.3013,0.3023,0.3033,0.3081,0.3098,0.2918,0.2918,0.2918,0,0,0.238,0.2412,0.2438,0.2494,0.2535,0.2577,0.2585,0.2652,0.2702,0.2702,0.2801,0.2834,0.2857,0.2931,0.297,0.2942,0.3079,0.3031,0.3039,0.3044,0.3089,0.3106,0.3122,0.2922,0.2921,0.2921,0,0,0.2406,0.2458,0.2496,0.2537,0.2607,0.2631,0.2662,0.2722,0.2772,0.2852,0.2873,0.2944,0.3007,0.3036,0.3054,0.3152,0.3142,0.3175,0.3238,0.3285,0.33,0.3312,0.3345,0.336,0.3178,0.3178,0.3179,0,0.2425,0.2473,0.2515,0.2561,0.2605,0.266,0.2709,0.276,0.2842,0.2887,0.2903,0.303,0.3053,0.3135,0.3177,0.318,0.3202,0.3177,0.3299,0.3312,0.3324,0.3354,0.3369,0.3183,0.3183,0.3182,0.3182,0,0.246,0.2522,0.2553,0.2627,0.2678,0.2737,0.2801,0.2874,0.2941,0.2984,0.3105,0.3147,0.3218,0.3245,0.3244,0.3348,0.3336,0.3308,0.3257,0.3347,0.3373,0.3388,0.3191,0.3189,0.3187,0.3186,0,0,0.2436,0.2554,0.2571,0.2618,0.2723,0.276,0.2862,0.295,0.3029,0.3117,0.3215,0.3301,0.3339,0.3364,0.3385,0.3434,0.3539,0.342,0.342,0.3443,0.365,0.3424,0.3418,0.3539,0.3542,0.3545,0.3637,0,0.2456,0.2541,0.2603,0.2698,0.2745,0.2837,0.2921,0.3016,0.311,0.3219,0.3288,0.3393,0.3379,0.3444,0.3488,0.3536,0.3582,0.3517,0.3567,0.3569,0.3349,0.3428,0.3554,0.3647,0.3651,0.3653,0.3655,0,0.2458,0.252,0.2612,0.2735,0.2768,0.2843,0.2993,0.3078,0.323,0.3312,0.3423,0.3484,0.3596,0.3567,0.3678,0.3644,0.366,0.3678,0.3681,0.3447,0.3369,0.3539,0.368,0.3678,0.3676,0.3675,0.3673,0,0.239,0.252,0.2596,0.2641,0.2788,0.2867,0.296,0.3115,0.3206,0.3394,0.348,0.3602,0.3691,0.3738,0.3779,0.3753,0.388,0.3834,0.3642,0.3627,0.3763,0.3748,0.3904,0.3904,0.3904,0.3903,0.3903,0,0.2355,0.2422,0.2583,0.2622,0.2731,0.2851,0.2989,0.3105,0.3283,0.3378,0.353,0.3612,0.3744,0.382,0.383,0.3775,0.3918,0.3665,0.3637,0.3799,0.3787,0.3773,0.3757,0.3907,0.3906,0.3905,0.3905,0,0.2261,0.2368,0.2464,0.2638,0.2703,0.2785,0.2995,0.3077,0.3272,0.3407,0.3477,0.3663,0.3753,0.3842,0.3934,0.3816,0.3807,0.3751,0.3939,0.3919,0.3512,0.35,0.3538,0.353,0.3524,0.3519,0.3515,0,0.2213,0.2257,0.2454,0.2514,0.2606,0.2751,0.284,0.3054,0.3138,0.3392,0.3425,0.3607,0.3693,0.3636,0.3753,0.3757,0.3709,0.3677,0.3569,0.3506,0.3477,0.3474,0.347,0.3505,0.3504,0.3502,0.3501,0,0.212,0.2216,0.2294,0.2422,0.2531,0.2628,0.2775,0.2817,0.3038,0.3242,0.329,0.3338,0.343,0.3483,0.3521,0.3513,0.3681,0.3613,0.3624,0.3521,0.3468,0.3444,0.3447,0.3479,0.3483,0.3484,0.3486,0,0.2057,0.2086,0.2204,0.2294,0.2418,0.2456,0.2557,0.2638,0.2746,0.3012,0.3021,0.3202,0.3386,0.3358,0.3391,0.3373,0.3311,0.3183,0.3215,0.324,0.3099,0.2984,0.2831,0,0,0,0,0,0.1974,0.1985,0.2061,0.2137,0.2248,0.232,0.2483,0.2583,0.2793,0.2745,0.2874,0.294,0.2987,0.3094,0.3013,0.3272,0.3334,0.3165,0.3206,0.3363,0.3387,0.3247,0,0,0,0,0,0,0.1915,0.1981,0.2002,0.1984,0.2004,0.2099,0.2192,0.2335,0.2323,0.2546,0.2589,0.2759,0.2857,0.2996,0.2955,0.2986,0.295,0.3291,0.3284,0.3349,0.3371,0.3391,0.3255,0,0,0,0,0]},{"header":{"parameterUnit":"m.s-1","parameterCategory":2,"la1":30.2991,"la2":30.254,"lo1":-89.0895,"lo2":-89.0444,"dy":0.0017,"dx":0.0017,"nx":28,"ny":28,"refTime":"2025-12-05T03:00:00:Z","depth":"4","parameterNumber":3,"parameterNumberName":"V-component_of_CURRENTS"},"data":[0,0,0,0,0,0,0,0,0,0,0,0,0,0,0,0,0,0,0,0,0,0,0,0,0,0,0,0,0,0,0,0,0,0,0,0,0,0,0,0,0,0,0,0,0,0,0,0,0,0,0,0,0,0,0,0,0,0,0.0222,0.0221,0,0.0168,0.0167,0.0166,0.0128,0.0128,0.0128,0.0128,0.005,0.0048,0.0046,0,0,0,0,0,0,0,0,0,0,0,0,0,0.024,0.024,0.0222,0.0221,0.0221,0.0168,0.0167,0.0166,0.0128,0.0128,0.0128,0.0128,0.0051,0.0048,0.0046,0,0,0,0,0,0,0,0,0,0,0,0,0,0.0212,0.024,0.0222,0.0197,0.0194,0.0168,0.0167,0.0166,0.0128,0.0128,0.0128,0.0128,0.0051,0.0048,0.0046,0.0032,0,0,0.0037,0.0036,0,0,0,0,0,0,0,0,0.0214,0.0212,0.0201,0.0198,0.0195,0.0156,0.0145,0.0121,0.0128,0.0152,0.0128,0.0128,0.0084,0.0079,0.0067,0.0029,0.0025,0.0037,0.0035,0.0034,0.0033,0,0,0,0,0,0,0,0.0216,0.0213,0.0199,0.02,0.0197,0.0171,0.0167,0.014,0.0118,0.015,0.0147,0.0144,0.0082,0.007,0.0065,0.0024,0.0037,0.0034,0.0032,0.0031,-0.0027,-0.0027,0,0,0,0,0,0,0.0229,0.0216,0.0201,0.0197,0.0206,0.0171,0.0166,0.0168,0.0119,0.0112,0.0144,0.0142,0.0075,0.0068,0.0062,0.0061,0.0034,0.0031,0.0029,-0.0027,-0.0027,-0.0027,0,0,0,0,0,0,0.023,0.0229,0.0203,0.0206,0.0201,0.0171,0.0173,0.0167,0.0159,0.0115,0.0107,0.0143,0.0075,0.0066,0.0047,0.0057,0.003,0.0027,-0.0028,-0.0027,-0.0027,0.0047,0,0,0,0,0,0,0.0231,0.0229,0.0236,0.0207,0.0202,0.0197,0.0173,0.0166,0.0158,0.0155,0.0112,0.0104,0.0074,0.0051,0.0044,0.0052,0.0025,-0.0028,-0.0028,-0.0027,0.0044,0.0049,0.0054,0,0,0,0,0,0.0232,0.0246,0.0237,0.0235,0.0212,0.0198,0.0193,0.0169,0.0158,0.016,0.0131,0.0106,0.0048,0.0049,0.004,0.0048,-0.0028,-0.0028,-0.0027,0.0042,0.0048,0.0054,0,0,0,0,0,0,0.0256,0.0242,0.0232,0.0241,0.0224,0.0192,0.0193,0.0176,0.0154,0.0153,0.011,0.01,0.0085,0.0056,0.0058,0.0031,0.0005,0.0004,0.006,0.0066,0.0071,0.0093,0.0022,0,0,0,0,0,0.0266,0.0273,0.0251,0.0258,0.0254,0.0225,0.0217,0.0202,0.0178,0.0169,0.0138,0.0105,0.0079,0.0065,0.0036,0.0024,-0.0013,0.0021,0.0026,0.0031,0.0042,-0.0008,-0.0006,-0.0026,-0.0026,-0.0026,0,0,0.0277,0.0271,0.0274,0.0264,0.0249,0.0256,0.0219,0.0216,0.022,0.0164,0.016,0.0122,0.0079,0.0065,0.0055,0.0043,0.0016,0.0032,0.0036,0.0044,-0.0007,-0.0005,-0.0004,-0.0025,-0.0025,-0.0025,0,0,0.0307,0.0299,0.0317,0.0309,0.0297,0.0282,0.0285,0.0259,0.0246,0.0235,0.0196,0.0169,0.0128,0.01,0.008,0.0095,0.0044,0.0082,0.0128,0.0079,0.0081,0.0081,0.0036,0.0033,0.0086,0.0086,0.0086,0,0.0322,0.0342,0.0318,0.0333,0.0338,0.03,0.0323,0.0303,0.0273,0.027,0.0245,0.0184,0.0146,0.0129,0.0133,0.0108,0.0072,0.0111,0.0087,0.0087,0.0086,0.004,0.0035,0.009,0.0089,0.0089,0.0089,0,0.0363,0.038,0.0391,0.0401,0.0402,0.0414,0.0392,0.0385,0.0364,0.0343,0.0318,0.0257,0.0225,0.0202,0.0173,0.0154,0.0126,0.0099,0.0076,0.0093,0.0043,0.0036,0.0095,0.0094,0.0093,0.0092,0,0,0.0393,0.0418,0.0422,0.0446,0.0442,0.0451,0.0458,0.0458,0.0472,0.0419,0.0423,0.0362,0.0326,0.0301,0.025,0.0205,0.0166,0.0159,0.0154,0.0122,0.006,0.0045,0.0036,0.0133,0.0132,0.0132,0.0026,0,0.0435,0.0488,0.0485,0.0538,0.0566,0.0543,0.0556,0.0548,0.053,0.0521,0.0447,0.0431,0.0364,0.0351,0.0295,0.0203,0.0153,0.0198,0.0041,0.0036,0.0028,0.0029,0.013,0.0021,0.0019,0.0018,0.0017,0,0.0478,0.0511,0.0573,0.0619,0.0629,0.0652,0.0679,0.0688,0.0661,0.0645,0.0605,0.0545,0.0479,0.0415,0.0262,0.0294,0.0189,0.0105,0.0099,0.0057,0.001,-0.0003,0.0004,0.0005,0.0006,0.0007,0.0008,0,0.0518,0.0575,0.0633,0.0647,0.0684,0.071,0.0731,0.0728,0.076,0.0731,0.074,0.0638,0.0598,0.0451,0.0279,0.0271,0.01,0.0065,-0.0052,-0.0055,-0.0042,-0.0042,-0.0047,-0.0047,-0.0047,-0.0047,-0.0046,0,0.0562,0.061,0.0661,0.069,0.0769,0.0771,0.0849,0.0847,0.0866,0.0911,0.0814,0.0809,0.0605,0.048,0.0309,0.0114,0.012,-0.0041,-0.0081,-0.001,-0.0004,-0.0047,-0.0046,-0.0051,-0.005,-0.0049,-0.0048,0,0.0593,0.0623,0.0699,0.076,0.0792,0.0848,0.0944,0.0995,0.0998,0.105,0.1047,0.0943,0.0779,0.0562,0.0322,0.0169,-0.0026,-0.0101,0.0002,-0.0032,-0.0159,-0.0152,-0.0238,-0.0239,-0.024,-0.0241,-0.0242,0,0.0613,0.0655,0.076,0.0818,0.0853,0.0947,0.1014,0.1059,0.1121,0.113,0.1153,0.1021,0.0918,0.0579,0.0337,0.0007,-0.0048,-0.0158,-0.017,-0.0146,-0.0178,-0.0169,-0.0162,-0.0244,-0.0244,-0.0244,-0.0245,0,0.0651,0.0691,0.0754,0.088,0.0969,0.108,0.1177,0.1232,0.1277,0.1284,0.1243,0.1061,0.0874,0.0593,0.0336,0.0095,-0.0091,-0.0171,-0.0171,-0.0183,-0.0155,-0.0183,-0.0174,-0.0249,-0.0248,-0.0248,-0.0248,0,0.0682,0.0735,0.0825,0.0936,0.1056,0.1167,0.1222,0.1285,0.1342,0.1339,0.1322,0.1111,0.0993,0.0638,0.0403,0.0164,0.0092,-0.0004,-0.0013,-0.0012,0.0075,0.0146,0.0115,0,0,0,0,0,0.0708,0.077,0.0875,0.0995,0.1116,0.1193,0.1309,0.1352,0.1394,0.1377,0.1354,0.1176,0.0827,0.0683,0.0442,0.036,0.0038,0.0065,-0.0079,-0.0271,-0.0266,-0.0205,0,0,0,0,0,0,0.0722,0.0819,0.0872,0.1025,0.1118,0.1258,0.1338,0.1371,0.1363,0.1362,0.119,0.1101,0.0771,0.097,0.0435,0.0362,0.0231,-0.0092,-0.0098,-0.0274,-0.0269,-0.0266,-0.0201,0,0,0,0,0]}]]